Powrót do katalogu

STARLINK-2745

AktywnyŁącznośćVLEO
NORAD 48671·PAYLOAD·🇺🇸 United States

Wystrzelony May 26, 2021 z Cape Canaveral Space Force Station

Loading…

Następne Przeloty (najbliższe 24 godziny)

TLE

ŚwieżeSource: CelesTrak SupGP

Epoka: Sep 14, 2026, 21:05 UTC

1 48671C 21044AK  26257.87895833 -.00016123  00000+0 -51846-3 0  2578
2 48671  53.1580 315.0960 0001273  85.9080 328.0835 15.31709981    11

Śledź STARLINK-2745 w czasie rzeczywistym z AllMySat

Download on the App Store